Wind_Speed
13 13 13 13 14 11 9 8 8 7 7 6 6 5 5 5 4 4 5 5 5 5 6 6 6 6 6 6 6 6 6 7 7 7 7 6 6 6 6 6 6 5 5 5 5 4 4 4 3
13 12 12 13 11 9 8 7 7 6 6 6 6 6 6 5 4 4 4 5 6 6 6 6 6 6 6 6 6 6 6 6 6 6 6 5 5 4 5 5 4 4 4 4 4 3 3 3 3
12 12 13 11 8 8 7 6 6 5 6 6 6 6 6 6 5 5 5 5 5 6 5 5 6 6 5 6 6 6 5 5 5 5 5 4 4 4 4 4 4 4 4 4 3 3 2 2 3
12 14 13 10 8 7 6 6 5 5 5 6 6 6 6 6 5 4 4 4 5 5 5 5 5 5 5 5 5 5 5 5 4 4 4 4 3 3 3 3 3 3 3 3 3 2 2 2 2
13 15 10 8 8 7 6 5 5 5 5 6 6 6 5 5 5 5 5 4 4 5 4 4 5 5 5 5 5 5 4 4 4 3 3 3 3 3 2 3 3 2 3 2 2 2 2 2 2
14 11 8 7 7 7 7 6 5 5 5 5 6 7 5 5 5 5 5 4 4 4 4 4 4 4 4 4 4 4 4 4 4 3 3 3 3 3 2 2 2 2 2 2 2 2 2 2 2
13 10 7 7 7 7 7 6 6 6 6 7 6 7 6 5 5 5 5 5 5 5 5 5 4 4 4 4 4 4 4 4 4 4 4 3 3 3 2 2 2 2 2 3 2 2 2 1 1
10 8 6 6 6 6 6 6 6 6 7 7 7 7 7 6 5 6 6 6 5 5 5 5 4 4 4 4 4 4 4 4 4 4 4 3 3 3 3 3 3 2 2 2 1 1 1 1 1
10 7 5 4 4 5 6 7 7 7 7 7 7 6 6 6 6 6 6 6 5 5 5 5 4 3 4 4 4 3 4 3 3 4 4 4 3 2 3 3 3 2 2 1 0 0 0 1 1
7 5 4 4 4 5 5 6 7 7 7 7 7 7 6 6 6 6 6 6 6 5 5 4 4 4 4 4 3 3 3 3 3 4 4 3 3 3 3 3 3 3 2 2 1 0 1 1 0
4 2 4 3 3 4 5 6 7 8 8 8 8 7 6 5 6 6 7 7 6 6 5 5 5 4 4 4 3 3 3 3 2 3 3 3 3 3 3 4 4 3 3 3 3 2 1 1 0
3 3 4 3 4 5 6 6 7 8 8 8 9 8 7 6 6 7 6 6 6 6 5 5 5 4 4 4 3 3 3 2 2 3 3 3 3 3 3 3 3 3 3 3 3 3 2 1 1
3 3 4 4 6 7 7 7 7 7 7 7 8 8 8 7 7 7 7 6 5 6 5 5 5 4 4 4 3 3 3 2 2 2 2 3 3 3 3 3 3 3 3 4 4 4 3 2 2
2 3 3 5 5 7 7 6 6 8 9 7 7 8 8 8 8 8 7 7 5 5 5 5 5 4 4 4 4 4 3 2 2 2 2 3 3 3 4 3 3 3 4 4 4 4 3 3 2
2 4 4 4 5 7 7 6 8 9 9 8 8 8 8 8 8 8 7 7 5 5 5 5 5 4 4 4 4 3 3 2 2 3 3 3 3 4 4 5 5 4 4 5 5 4 3 3 3
5 6 5 6 6 6 8 8 8 9 10 9 8 8 8 8 7 8 8 7 5 4 4 4 4 4 4 3 3 3 3 3 3 3 3 4 4 4 4 5 6 6 6 6 6 5 5 5 5
1 2 4 6 7 6 7 8 10 10 10 9 9 9 8 7 7 8 8 7 5 4 4 4 4 4 4 4 3 3 4 4 4 4 4 5 5 5 5 5 6 6 6 6 6 7 7 7 6
1 1 4 6 6 6 7 9 11 11 10 10 10 9 9 8 8 7 7 7 6 5 4 4 4 5 5 5 4 4 5 5 5 6 6 6 6 6 6 6 6 7 7 7 7 7 7 8 7
3 2 4 6 7 6 7 9 10 11 10 10 11 10 9 9 8 8 7 7 7 6 5 4 5 5 5 5 5 5 5 6 6 6 6 7 7 7 7 7 7 8 8 8 8 8 8 8 9
5 7 5 7 8 7 7 10 11 12 12 12 11 10 9 9 8 7 7 6 7 6 6 6 6 5 5 5 6 6 6 6 7 7 7 8 8 8 8 9 8 9 9 9 9 9 9 10 11
7 8 8 8 9 8 9 12 12 12 13 12 12 10 10 9 9 7 7 7 7 7 7 7 7 7 7 7 7 7 7 8 8 8 9 9 9 9 10 10 9 9 9 8 9 9 10 11 10
9 9 10 9 9 9 9 13 14 14 11 11 10 10 9 9 9 7 8 8 8 8 8 8 8 8 9 9 9 9 9 9 9 9 10 10 10 10 10 10 9 9 9 9 10 10 10 10 10
12 12 11 9 8 8 10 13 15 16 13 11 11 10 10 10 9 9 8 9 9 8 9 9 9 9 10 10 10 10 10 10 10 11 11 11 11 11 11 10 10 10 10 10 10 10 11 11 11
11 10 8 9 9 12 12 14 13 15 13 12 12 11 10 11 11 11 10 9 9 9 9 9 10 10 10 11 11 12 12 12 12 12 13 13 13 12 12 13 12 11 11 11 11 11 11 11 12
12 11 10 11 12 12 12 13 15 14 14 13 12 12 11 11 11 11 11 11 10 10 11 10 10 11 11 12 12 13 13 13 13 13 14 14 14 14 13 15 14 13 13 12 12 12 13 13 13
14 12 11 12 12 13 13 13 13 13 14 13 13 12 12 12 12 12 12 12 12 12 12 12 12 12 12 13 13 13 15 15 14 15 15 15 15 15 15 16 16 15 14 13 13 13 13 14 14
15 13 12 14 13 14 14 13 12 14 15 14 14 15 14 13 12 13 13 13 13 13 13 13 14 14 14 14 14 14 15 15 15 15 15 16 16 16 17 17 16 15 15 14 14 14 15 15 15
16 14 13 14 15 14 13 13 15 16 17 15 14 16 16 16 15 15 14 15 15 15 15 15 16 16 16 16 15 15 17 17 17 17 17 17 17 17 17 17 16 15 15 15 16 16 16 17 17
17 16 16 16 15 15 15 17 18 18 16 15 14 16 18 17 18 17 16 16 17 17 17 17 17 17 17 18 18 18 18 18 19 18 18 18 18 19 19 18 18 17 18 17 18 18 18 18 18
19 19 18 17 17 16 17 20 20 19 18 17 16 18 19 19 19 20 20 19 19 19 19 19 19 19 19 19 19 19 20 20 19 19 19 19 19 20 20 20 19 19 19 19 19 20 20 20 21
Wind_Direction
76 78 76 71 59 53 57 58 55 52 55 58 60 59 56 50 54 59 52 52 55 59 66 71 72 80 83 86 93 97 109 120 124 130 133 129 124 124 126 130 129 126 124 119 114 110 104 96 92
73 78 77 69 58 43 51 54 52 45 52 54 56 54 55 53 50 48 52 54 53 54 58 67 74 80 80 84 86 89 101 111 120 128 133 131 129 128 128 129 128 126 121 113 106 105 103 89 90
78 77 73 68 60 42 41 45 46 43 51 52 52 50 52 48 52 50 52 53 51 51 57 68 75 82 81 80 81 82 92 102 114 127 129 127 122 119 123 122 122 121 119 110 100 87 91 100 94
84 75 67 67 60 42 35 38 38 36 45 46 46 50 51 49 49 45 43 45 43 45 53 55 65 73 77 74 74 79 87 93 101 115 122 117 106 105 117 117 118 124 121 107 95 82 81 90 88
77 67 59 47 37 32 27 29 37 38 43 40 40 41 42 42 40 39 32 33 40 41 43 50 62 68 69 71 71 71 83 82 79 86 99 106 103 99 99 110 111 128 128 122 101 83 78 90 91
72 67 56 38 22 22 23 27 27 28 29 31 33 36 28 31 33 34 30 31 38 33 34 46 53 63 68 68 64 68 72 72 69 72 79 93 92 90 87 109 117 120 134 122 109 103 89 91 99
72 65 58 41 22 17 23 28 26 20 18 23 26 31 25 26 31 33 34 30 35 39 39 48 60 65 66 65 65 65 65 60 56 60 69 82 89 87 87 95 107 106 131 133 119 111 108 99 100
86 79 64 50 22 22 26 23 24 20 17 19 23 29 27 30 32 31 32 35 37 42 44 53 62 64 58 58 58 54 51 47 48 50 55 69 87 88 85 71 66 82 114 134 136 135 111 97 107
73 75 73 40 25 28 29 26 25 25 17 19 21 25 29 32 32 29 30 35 39 42 46 52 51 55 53 43 46 43 36 39 44 44 50 60 65 68 69 54 54 60 64 79 147 239 298 57 61
66 62 63 24 30 32 31 28 20 25 26 23 18 14 18 26 30 31 30 35 38 39 46 49 44 44 40 34 22 19 26 32 38 43 49 53 53 53 47 43 55 53 42 34 28 328 321 352 49
92 61 54 28 28 32 30 28 21 18 21 17 13 11 17 22 26 26 29 35 36 35 39 37 31 31 37 29 17 10 19 24 38 48 54 48 52 47 43 39 37 26 8 4 2 335 341 334 221
106 82 69 30 27 28 25 27 24 18 14 18 17 14 18 20 19 17 25 27 29 27 30 33 28 26 28 33 27 11 15 27 44 56 55 44 39 33 28 25 18 10 0 346 340 341 321 329 279
91 71 59 34 22 19 21 22 18 11 5 9 11 12 13 16 16 16 13 14 23 21 24 29 24 25 31 34 23 15 18 37 48 47 38 27 17 17 21 15 8 3 355 342 325 330 315 315 317
112 77 61 38 25 18 9 2 10 4 358 1 2 6 9 9 12 11 7 13 20 22 27 26 27 31 34 29 19 17 20 37 35 28 20 11 10 10 11 7 351 346 342 340 337 321 322 316 317
53 39 41 28 19 7 356 359 3 357 353 358 357 358 2 3 6 6 2 3 11 22 28 28 30 27 31 28 19 16 16 29 25 13 6 4 2 2 3 357 346 339 330 330 331 325 323 312 292
37 12 2 2 7 359 354 350 350 352 347 351 354 351 354 357 360 1 358 358 4 13 22 29 26 19 19 14 15 14 4 7 6 3 3 0 1 356 351 348 340 331 324 321 317 312 305 296 290
7 345 345 346 354 349 339 336 340 344 342 344 346 347 349 351 351 352 353 352 356 2 8 12 12 7 1 349 347 347 343 345 346 344 342 347 347 344 338 336 335 328 322 315 310 308 299 296 291
263 323 333 323 321 321 322 326 330 338 342 340 339 341 343 347 347 344 346 346 349 356 360 0 357 352 346 338 328 327 330 334 335 335 332 333 334 330 325 325 325 326 320 312 307 302 294 293 290
276 293 300 307 310 309 311 317 320 327 337 334 331 332 336 339 340 338 338 340 341 344 346 344 336 333 331 334 334 317 324 329 329 329 327 324 322 321 318 321 320 321 320 311 304 303 294 292 293
270 270 276 291 300 308 309 310 313 316 328 328 328 329 329 331 331 335 336 336 333 336 330 329 324 321 323 324 326 324 319 321 324 325 322 317 313 311 309 313 313 316 318 312 301 296 294 295 291
257 266 270 273 287 305 305 301 306 306 316 318 319 322 324 326 325 333 336 330 328 328 326 322 320 318 314 314 316 319 318 315 317 319 319 315 309 304 301 302 307 311 315 313 305 301 300 300 297
263 259 268 273 281 286 288 290 296 295 304 308 312 312 317 323 328 330 334 328 325 324 326 321 318 312 313 315 315 315 315 313 312 314 315 314 309 302 298 299 305 308 311 309 303 300 303 305 302
252 251 261 269 272 280 282 280 289 300 303 309 314 310 308 312 318 321 322 322 319 320 323 320 315 308 307 310 309 307 308 308 310 313 313 313 309 305 301 299 301 303 308 308 304 300 301 302 304
259 261 274 284 272 266 266 266 274 283 298 305 308 308 306 305 310 312 312 315 315 313 314 316 313 308 308 309 308 307 306 308 307 310 309 309 311 308 304 300 295 299 304 305 305 304 303 301 302
250 262 273 275 272 272 273 270 277 282 294 297 301 300 299 298 302 305 304 306 310 310 313 316 313 313 306 304 303 305 305 307 308 309 310 310 311 311 308 306 301 299 302 301 302 300 298 296 298
249 254 262 276 279 283 280 271 276 279 286 290 294 294 293 293 297 301 302 307 309 308 308 308 309 310 306 301 300 301 303 304 306 308 309 310 306 305 305 303 301 300 298 296 296 298 297 296 295
244 248 255 265 264 269 270 272 277 275 280 280 288 298 300 293 291 295 301 303 301 302 303 302 304 305 304 302 303 303 303 301 302 304 308 311 310 308 306 302 300 298 297 294 292 294 297 294 294
251 249 256 262 266 269 274 275 276 277 283 279 278 290 294 294 293 295 294 293 294 295 297 296 296 299 298 297 296 299 301 301 301 303 304 304 306 308 308 304 299 296 296 295 292 292 296 295 296
247 249 247 251 255 267 274 276 281 282 281 277 279 286 290 293 290 290 291 293 292 291 291 292 293 295 297 297 297 298 300 301 301 300 301 301 301 303 304 302 298 296 296 294 291 292 295 296 298
245 247 249 250 254 259 267 272 279 280 274 274 275 281 286 288 288 287 286 287 288 289 289 289 290 291 292 293 294 297 297 298 299 297 298 300 300 299 299 300 299 297 296 296 294 291 292 294 297
Height
5895 5895 5895 5895 5895 5894 5893 5893 5893 5892 5892 5891 5890 5889 5889 5889 5890 5891 5888 5886 5886 5886 5886 5886 5885 5885 5885 5885 5885 5885 5884 5884 5885 5887 5887 5888 5889 5890 5890 5891 5891 5892 5892 5893 5893 5893 5894 5894 5894
5898 5898 5897 5897 5897 5896 5896 5895 5895 5894 5894 5893 5892 5891 5891 5890 5890 5889 5888 5888 5888 5887 5887 5887 5887 5887 5887 5887 5887 5887 5886 5886 5887 5888 5889 5889 5890 5890 5891 5892 5892 5893 5893 5894 5894 5894 5894 5894 5894
5900 5900 5899 5899 5899 5899 5898 5898 5897 5896 5895 5894 5894 5893 5892 5892 5891 5891 5890 5890 5889 5889 5889 5889 5889 5889 5889 5889 5889 5889 5889 5889 5889 5889 5890 5891 5891 5891 5892 5893 5893 5894 5894 5895 5895 5895 5895 5895 5895
5902 5901 5902 5902 5902 5901 5900 5900 5899 5898 5897 5896 5896 5895 5894 5893 5893 5892 5891 5891 5891 5891 5891 5890 5890 5890 5890 5890 5890 5890 5891 5891 5891 5891 5891 5892 5892 5892 5893 5893 5894 5894 5895 5895 5895 5896 5896 5896 5896
5903 5903 5905 5904 5904 5904 5902 5901 5901 5900 5899 5898 5897 5896 5896 5895 5894 5893 5893 5892 5892 5892 5892 5891 5891 5892 5892 5892 5892 5892 5892 5892 5892 5892 5892 5892 5893 5893 5893 5894 5894 5895 5895 5896 5896 5896 5896 5896 5896
5904 5906 5908 5907 5906 5905 5904 5903 5903 5902 5901 5900 5899 5898 5897 5896 5896 5895 5894 5893 5893 5893 5893 5892 5893 5893 5893 5893 5893 5893 5893 5893 5893 5893 5893 5894 5894 5894 5894 5895 5895 5896 5896 5896 5896 5896 5896 5897 5897
5908 5909 5909 5909 5908 5907 5907 5905 5904 5903 5902 5901 5900 5900 5898 5898 5897 5896 5895 5894 5894 5894 5894 5893 5893 5894 5894 5894 5894 5894 5894 5894 5894 5894 5894 5894 5895 5895 5895 5896 5896 5896 5896 5897 5897 5897 5897 5897 5897
5910 5913 5911 5910 5910 5909 5908 5907 5906 5905 5904 5903 5902 5901 5900 5899 5898 5897 5896 5896 5895 5895 5895 5895 5895 5895 5895 5895 5895 5895 5895 5895 5895 5895 5895 5895 5896 5896 5896 5896 5896 5896 5897 5897 5897 5897 5897 5897 5897
5913 5914 5913 5913 5912 5911 5910 5909 5908 5907 5905 5904 5903 5903 5902 5901 5899 5899 5898 5897 5897 5896 5896 5896 5896 5896 5896 5896 5896 5896 5896 5896 5896 5896 5896 5896 5896 5897 5897 5897 5897 5897 5897 5897 5898 5898 5898 5898 5898
5915 5915 5915 5915 5914 5913 5912 5910 5909 5908 5906 5905 5905 5904 5903 5902 5901 5900 5899 5899 5898 5897 5897 5897 5897 5897 5897 5897 5897 5897 5897 5897 5897 5897 5897 5897 5897 5897 5897 5897 5897 5897 5897 5898 5898 5898 5898 5898 5898
5917 5917 5916 5916 5915 5914 5913 5912 5910 5909 5908 5907 5906 5905 5904 5903 5902 5901 5900 5900 5899 5899 5898 5898 5898 5898 5898 5898 5898 5898 5898 5898 5897 5897 5898 5898 5898 5898 5898 5898 5898 5898 5897 5898 5898 5898 5898 5898 5898
5918 5918 5918 5917 5917 5916 5915 5913 5912 5911 5910 5908 5907 5906 5905 5904 5903 5902 5902 5901 5900 5900 5900 5899 5899 5899 5898 5898 5899 5899 5899 5898 5898 5898 5898 5899 5899 5899 5899 5898 5898 5898 5898 5898 5898 5898 5898 5897 5897
5920 5920 5919 5919 5918 5917 5916 5915 5914 5912 5911 5910 5908 5907 5906 5905 5904 5903 5902 5901 5901 5901 5900 5900 5900 5900 5900 5900 5900 5900 5899 5899 5899 5899 5899 5899 5899 5899 5899 5898 5898 5898 5898 5898 5898 5898 5897 5897 5897
5920 5920 5920 5920 5919 5918 5917 5916 5915 5914 5912 5911 5909 5908 5907 5906 5905 5904 5903 5902 5901 5901 5901 5901 5901 5900 5900 5900 5900 5900 5900 5900 5900 5900 5900 5899 5899 5899 5899 5899 5898 5898 5898 5898 5897 5897 5897 5897 5897
5920 5921 5921 5921 5920 5919 5918 5917 5916 5915 5913 5911 5910 5909 5908 5907 5906 5905 5904 5904 5903 5902 5902 5902 5902 5901 5901 5901 5901 5901 5901 5900 5900 5900 5900 5900 5899 5899 5899 5899 5898 5898 5898 5897 5897 5897 5897 5897 5897
5922 5922 5922 5922 5921 5920 5921 5918 5917 5916 5914 5912 5911 5910 5909 5908 5907 5906 5905 5904 5904 5903 5903 5902 5902 5902 5902 5902 5902 5902 5901 5901 5901 5901 5900 5900 5899 5899 5899 5899 5898 5898 5897 5897 5897 5896 5896 5896 5896
5923 5924 5924 5924 5923 5922 5921 5919 5917 5916 5915 5913 5912 5910 5909 5908 5908 5906 5906 5905 5904 5904 5903 5903 5903 5903 5903 5902 5902 5902 5902 5901 5901 5901 5900 5899 5899 5899 5898 5898 5897 5897 5896 5896 5896 5895 5895 5895 5895
5923 5924 5925 5925 5924 5923 5921 5919 5917 5916 5915 5914 5912 5911 5910 5909 5908 5907 5906 5905 5904 5904 5904 5903 5903 5903 5903 5903 5903 5902 5902 5901 5901 5900 5900 5899 5899 5898 5898 5897 5897 5896 5895 5895 5894 5894 5894 5893 5893
5923 5925 5926 5925 5924 5923 5921 5919 5917 5916 5915 5914 5912 5911 5910 5909 5908 5907 5906 5905 5905 5904 5904 5903 5903 5903 5903 5903 5902 5902 5901 5901 5901 5900 5899 5899 5898 5898 5897 5896 5896 5895 5894 5893 5893 5893 5892 5892 5892
5924 5925 5924 5925 5923 5922 5921 5919 5916 5914 5914 5913 5912 5911 5910 5908 5907 5906 5906 5905 5905 5904 5904 5904 5903 5903 5903 5902 5902 5901 5901 5900 5900 5899 5899 5898 5897 5897 5896 5895 5894 5894 5893 5892 5891 5891 5890 5890 5890
5923 5924 5924 5923 5923 5922 5921 5919 5915 5913 5914 5913 5911 5910 5909 5908 5907 5906 5905 5905 5904 5904 5903 5903 5903 5902 5902 5901 5901 5901 5900 5900 5899 5898 5898 5897 5896 5895 5894 5894 5893 5892 5891 5890 5889 5889 5888 5888 5887
5921 5922 5922 5921 5921 5921 5921 5919 5916 5912 5911 5910 5910 5909 5908 5907 5906 5904 5904 5904 5904 5903 5902 5902 5902 5901 5901 5900 5900 5900 5899 5898 5898 5897 5896 5895 5894 5893 5892 5891 5891 5890 5889 5888 5887 5887 5886 5886 5885
5919 5919 5919 5919 5919 5919 5919 5918 5915 5911 5909 5908 5908 5908 5907 5906 5905 5904 5903 5903 5902 5902 5901 5901 5900 5900 5899 5899 5899 5898 5898 5897 5896 5895 5894 5893 5892 5891 5890 5889 5888 5888 5887 5886 5886 5885 5884 5883 5883
5916 5917 5916 5916 5916 5917 5916 5915 5913 5909 5908 5907 5907 5907 5906 5905 5904 5903 5902 5902 5901 5900 5900 5900 5899 5897 5897 5897 5897 5896 5896 5895 5894 5893 5893 5891 5890 5889 5888 5887 5886 5886 5885 5884 5883 5883 5882 5881 5880
5914 5915 5915 5914 5913 5913 5913 5913 5911 5908 5908 5906 5906 5906 5905 5904 5903 5902 5901 5900 5899 5899 5898 5898 5898 5897 5896 5895 5895 5894 5893 5893 5892 5891 5890 5889 5888 5887 5886 5885 5884 5883 5882 5882 5881 5880 5879 5878 5878
5910 5912 5913 5913 5912 5911 5911 5910 5909 5908 5907 5906 5904 5904 5903 5902 5901 5900 5899 5898 5898 5897 5897 5896 5896 5895 5894 5893 5893 5892 5891 5890 5889 5889 5888 5886 5885 5884 5883 5882 5881 5880 5880 5879 5878 5877 5876 5875 5875
5907 5908 5910 5911 5910 5909 5907 5907 5905 5904 5904 5903 5902 5901 5901 5899 5898 5899 5898 5897 5896 5895 5895 5894 5893 5893 5892 5891 5890 5889 5888 5887 5886 5886 5885 5883 5882 5881 5880 5878 5878 5877 5876 5875 5874 5874 5873 5872 5871
5904 5905 5907 5907 5906 5906 5905 5903 5903 5901 5900 5900 5900 5899 5899 5897 5896 5896 5895 5895 5894 5893 5892 5892 5891 5890 5889 5888 5887 5886 5885 5884 5883 5882 5882 5880 5879 5877 5876 5875 5874 5873 5872 5872 5871 5870 5869 5868 5867
5901 5902 5903 5903 5904 5904 5903 5903 5900 5899 5897 5897 5895 5895 5896 5895 5894 5893 5893 5892 5891 5890 5889 5888 5887 5886 5885 5884 5883 5882 5881 5881 5880 5879 5878 5877 5875 5874 5873 5871 5870 5869 5869 5867 5867 5866 5865 5864 5862
5896 5897 5899 5900 5900 5900 5900 5900 5898 5895 5894 5893 5892 5892 5892 5892 5891 5890 5889 5888 5887 5886 5885 5884 5883 5883 5882 5880 5879 5878 5877 5876 5875 5875 5874 5873 5871 5870 5869 5867 5866 5865 5864 5863 5862 5861 5860 5859 5857